Location: Ellerstadt
(49.4644°N, 8.2615°E)
Time: 02:05:40
(UTC+00:00)

ISS - Pass Details

Date: 15 May 2021
Orbit: 417 x 422 km, 51.6° (Epoch: 15 June)

Event Time Altitude Azimuth Distance (km) Brightness Sun altitude
Rises 21:36:58 0° 248° (WSW) 2,360 0.1 -17.5°
Reaches altitude 10° 21:39:04 10° 248° (WSW) 1,499 -0.9 -17.7°
Maximum altitude 21:42:26 84° 161° (SSE) 427 -3.9 -17.9°
Drops below altitude 10° 21:45:49 10° 72° (ENE) 1,508 -1.0 -18.1°
Sets 21:47:55 0° 72° (ENE) 2,375 0.0 -18.3°
